Richmond Hanover County, VA

9:54 PM EDT on August 17, 2017 (GMT -0400)
Hanover County Municipal

Weather History for KOFP - May, 2014

Change the Weather History Date:

Sunday, May 4, 2014

  Actual Average Record
Temperature  
Mean Temperature 66 °F -  
Max Temperature 82 °F 72 °F 91 °F (1965)
Min Temperature 50 °F 47 °F 33 °F (1967)
Cooling Degree Days 1    
Growing Degree Days 16 (Base 50)    
Moisture  
Dew Point 42 °F    
Average Humidity 43    
Maximum Humidity 80    
Minimum Humidity 23    
Precipitation  
Precipitation 0.00 in - - ()
Sea Level Pressure  
Sea Level Pressure 29.86 in    
Wind  
Wind Speed 7 mph (West)    
Max Wind Speed 18 mph    
Max Gust Speed 30 mph    
Visibility 10 miles    
Events      
Averages and records for this station are not official NWS values.
T = Trace of Precipitation, MM = Missing Value Source: NWS Daily Summary

Daily Weather History Graph

Daily Weather History Graph

Search for Another Location

Airport or City:

Trip Planner

Search our weather history database for the weather conditions in past years. The results will help you decide how hot, cold, wet, or windy it might be!

Date:

Astronomy

May. 04, 2014 Rise Set
Actual Time 6:10 AM EDT 8:02 PM EDT
Civil Twilight 5:42 AM EDT 8:31 PM EDT
Nautical Twilight 5:07 AM EDT 9:05 PM EDT
Astronomical Twilight 4:31 AM EDT 9:43 PM EDT
Moon 10:33 AM EDT (5/4) 12:06 AM EDT (5/4)
Length of Visible Light 14h 48m
Length of Day
13h 52m
Waxing Crescent, 27% of the Moon is Illuminated
May 4
Waxing Crescent
May 6
First Quarter
May 14
Full
May 21
Last Quarter
May 28
New

Hourly Weather History & Observations

Time (EDT) Temp. Dew Point Humidity Pressure Visibility Wind Dir Wind Speed Gust Speed Precip Events Conditions
12:54 AM 52.0 °F 45.0 °F 77% 29.87 in 10.0 mi Calm Calm - N/A   Clear
1:54 AM 51.1 °F 45.0 °F 80% 29.88 in 10.0 mi Calm Calm - N/A   Clear
2:54 AM 51.1 °F 44.1 °F 77% 29.89 in 10.0 mi NW 4.6 mph - N/A   Clear
3:54 AM 50.0 °F 44.1 °F 80% 29.91 in 10.0 mi Variable 5.8 mph - N/A   Clear
4:54 AM 57.9 °F 37.9 °F 47% 29.91 in 10.0 mi West 9.2 mph - N/A   Clear
5:54 AM 52.0 °F 41.0 °F 66% 29.92 in 10.0 mi Calm Calm - N/A   Clear
6:54 AM 54.0 °F 39.0 °F 57% 29.94 in 10.0 mi Calm Calm - N/A   Clear
7:54 AM 59.0 °F 44.1 °F 58% 29.94 in 10.0 mi WSW 4.6 mph - N/A   Clear
8:54 AM 66.0 °F 42.1 °F 42% 29.94 in 10.0 mi WSW 9.2 mph - N/A   Clear
9:54 AM 70.0 °F 37.9 °F 31% 29.91 in 10.0 mi SW 11.5 mph - N/A   Clear
10:54 AM 73.0 °F 39.0 °F 29% 29.89 in 10.0 mi SSW 12.7 mph - N/A   Clear
11:54 AM 73.9 °F 39.9 °F 29% 29.87 in 10.0 mi SW 13.8 mph 20.7 mph N/A   Clear
12:45 PM 77.0 °F 39.9 °F 26% 29.85 in 10.0 mi WSW 16.1 mph 25.3 mph N/A   Clear
12:54 PM 75.9 °F 39.0 °F 26% 29.85 in 10.0 mi West 18.4 mph 29.9 mph N/A   Clear
1:54 PM 77.0 °F 39.0 °F 25% 29.81 in 10.0 mi SW 15.0 mph 23.0 mph N/A   Clear
2:54 PM 80.1 °F 42.1 °F 26% 29.78 in 10.0 mi SW 18.4 mph 28.8 mph N/A   Clear
3:54 PM 81.0 °F 43.0 °F 26% 29.75 in 10.0 mi WSW 16.1 mph 26.5 mph N/A   Clear
4:54 PM 82.0 °F 42.1 °F 24% 29.74 in 10.0 mi West 17.3 mph 26.5 mph N/A   Partly Cloudy
5:54 PM 81.0 °F 39.9 °F 23% 29.75 in 10.0 mi WNW 17.3 mph 26.5 mph N/A   Clear
6:54 PM 78.1 °F 42.1 °F 28% 29.77 in 10.0 mi NW 6.9 mph - N/A   Partly Cloudy
7:54 PM 75.0 °F 42.1 °F 31% 29.78 in 10.0 mi NW 5.8 mph - N/A   Scattered Clouds
8:54 PM 73.9 °F 43.0 °F 33% 29.82 in 10.0 mi Variable 5.8 mph - N/A   Mostly Cloudy
9:54 PM 73.9 °F 42.1 °F 32% 29.87 in 10.0 mi NW 9.2 mph 18.4 mph N/A   Overcast
10:54 PM 63.0 °F 44.1 °F 50% 29.90 in 10.0 mi NE 5.8 mph - N/A   Overcast
11:54 PM 59.0 °F 44.1 °F 58% 29.92 in 10.0 mi ENE 3.5 mph - N/A   Clear